DAL1593 KBNA-KSLC

Flight info

Callsign DAL1593
Flight time N/A
Altitude 38000
Route PARDN4 NAKIY FAM KK57G JSONN DPEAK LBF LAR CKW CARTR1
Aircraft B763/H-SDE3FGHIM3RWXY/LB1

Departure

Time 2026-04-30 22:32
Airport Nashville International Airport (KBNA)

Arrival

Time N/A
Airport Salt Lake City International Airport (KSLC)
Time Latitude Longitude Altitude Speed Heading
2026-04-30 22:05 36.13308 -86.67273 613 ft 0 kts 132°
2026-04-30 22:18 36.13310 -86.67275 614 ft 1 kts 133°
2026-04-30 22:18 36.13338 -86.67301 614 ft 3 kts 144°
2026-04-30 22:19 36.13373 -86.67317 614 ft 3 kts 181°
2026-04-30 22:19 36.13393 -86.67314 614 ft 3 kts 195°
2026-04-30 22:19 36.13403 -86.67310 614 ft 15 kts 198°
2026-04-30 22:22 36.13400 -86.67310 614 ft 1 kts 187°
2026-04-30 22:22 36.13389 -86.67292 614 ft 4 kts 91°
2026-04-30 22:23 36.13414 -86.67282 614 ft 4 kts 331°
2026-04-30 22:23 36.13427 -86.67337 614 ft 11 kts 282°
2026-04-30 22:23 36.13457 -86.67473 614 ft 21 kts 288°
2026-04-30 22:23 36.13502 -86.67638 614 ft 18 kts 289°
2026-04-30 22:24 36.13495 -86.67767 614 ft 14 kts 221°
2026-04-30 22:24 36.13399 -86.67821 614 ft 17 kts 197°
2026-04-30 22:24 36.13292 -86.67862 614 ft 1 kts 195°
2026-04-30 22:24 36.13291 -86.67862 614 ft 0 kts 195°
2026-04-30 22:25 36.13275 -86.67868 614 ft 8 kts 197°
2026-04-30 22:25 36.13165 -86.67911 614 ft 23 kts 198°
2026-04-30 22:25 36.13057 -86.67872 614 ft 17 kts 134°
2026-04-30 22:25 36.12961 -86.67748 614 ft 23 kts 133°
2026-04-30 22:26 36.12728 -86.67441 614 ft 26 kts 134°
2026-04-30 22:26 36.12605 -86.67282 614 ft 25 kts 133°
2026-04-30 22:26 36.12493 -86.67138 614 ft 22 kts 133°
2026-04-30 22:27 36.12388 -86.66999 614 ft 22 kts 133°
2026-04-30 22:27 36.12291 -86.66844 614 ft 24 kts 116°
2026-04-30 22:28 36.11975 -86.66628 614 ft 17 kts 195°
2026-04-30 22:28 36.11871 -86.66667 614 ft 14 kts 197°
2026-04-30 22:29 36.11622 -86.66766 614 ft 18 kts 198°
2026-04-30 22:29 36.11506 -86.66812 614 ft 16 kts 198°
2026-04-30 22:30 36.11361 -86.66730 614 ft 0 kts 18°
2026-04-30 22:31 36.12008 -86.66471 614 ft 134 kts 18°
2026-04-30 22:32 36.16006 -86.64921 2911 ft 243 kts 16°
2026-04-30 22:32 36.19429 -86.64167 5775 ft 254 kts 356°
2026-04-30 22:33 36.24386 -86.66593 8796 ft 270 kts 320°
2026-04-30 22:33 36.27163 -86.69840 10712 ft 284 kts 309°
2026-04-30 22:34 36.28561 -86.77236 13045 ft 322 kts 263°
2026-04-30 22:35 36.27509 -86.82784 14808 ft 335 kts 260°
2026-04-30 22:36 36.27210 -86.94427 18444 ft 343 kts 273°
2026-04-30 22:36 36.27223 -86.97396 19339 ft 345 kts 272°
2026-04-30 22:37 36.27188 -87.06342 21900 ft 350 kts 271°
2026-04-30 22:37 36.27179 -87.09368 22706 ft 352 kts 271°
2026-04-30 22:37 36.27160 -87.15479 24220 ft 356 kts 271°
2026-04-30 22:38 36.27158 -87.21642 25712 ft 358 kts 273°
2026-04-30 22:38 36.27871 -87.27737 27182 ft 358 kts 281°
2026-04-30 22:39 36.28410 -87.30749 27888 ft 358 kts 282°